Theta_e
320 320 320 321 319 318 318 318 321 322 324 326 327 327 326 325 323 329 343 343 338 340 345 348 345 341 333 345 349 345 342 340 331 336 338 337 337 336 335 334 333 333 332
320 320 321 319 319 320 320 318 318 323 324 324 328 329 330 330 330 327 329 345 347 350 351 351 350 349 348 348 349 344 342 338 336 332 338 337 335 333 334 334 332 333 333
320 321 318 317 317 317 315 315 320 322 320 321 323 326 329 332 332 332 327 331 349 352 350 352 351 351 350 348 349 343 341 338 336 336 336 336 334 333 333 332 332 331 331
319 318 317 317 317 316 315 316 320 319 320 324 324 325 326 327 332 333 333 331 332 350 353 354 351 351 350 349 347 343 341 338 336 335 335 335 333 333 333 331 330 329 330
318 318 317 317 317 316 315 314 314 313 316 319 320 324 324 324 326 335 334 336 333 340 351 352 352 351 349 351 347 344 340 337 336 335 334 334 333 332 331 330 329 330 330
318 319 318 318 317 317 315 316 317 318 317 316 316 317 321 325 326 328 335 335 336 350 352 351 350 349 350 347 347 345 340 337 336 335 333 332 333 333 332 330 330 329 327
316 318 318 318 318 316 315 314 316 316 315 314 314 317 319 322 326 326 326 335 336 343 349 349 350 347 347 347 345 341 340 338 336 336 334 333 332 333 333 331 330 329 327
316 316 316 318 318 317 316 315 314 313 313 312 313 314 315 316 319 326 328 332 335 338 347 348 347 346 346 345 341 338 337 336 335 334 334 333 333 332 332 331 331 330 329
316 316 316 316 317 317 315 314 313 313 313 313 312 313 314 314 315 318 328 331 335 341 347 347 344 344 343 342 336 334 333 333 332 331 331 330 330 329 329 330 329 328 326
315 315 316 316 316 316 316 314 313 312 312 312 312 312 312 312 312 314 318 328 336 342 345 344 344 341 337 337 336 334 333 332 331 330 329 327 326 326 328 329 329 327 326
311 311 311 311 313 316 316 315 313 312 312 312 311 311 312 312 313 314 318 330 336 343 342 340 341 339 337 335 335 333 332 332 330 329 328 326 326 326 327 328 328 328 328
309 309 310 311 313 314 315 315 314 312 312 311 311 311 311 312 314 316 316 331 337 341 339 340 338 336 334 334 334 334 334 332 330 328 326 326 327 327 327 327 327 328 327
309 309 310 311 311 311 312 313 314 313 311 310 310 311 311 313 318 323 328 335 338 340 337 338 338 336 334 332 333 332 331 330 327 326 325 325 327 327 327 327 327 328 328
308 309 309 310 310 309 310 311 311 311 311 310 310 310 312 317 326 329 331 333 339 337 336 335 335 334 331 329 328 329 329 328 327 327 326 326 326 328 328 328 328 328 328
310 310 311 312 313 314 312 310 311 310 310 310 310 311 316 324 329 331 332 335 334 336 331 329 327 326 325 326 326 326 327 327 329 328 328 328 328 327 326 327 328 328 327
311 312 314 312 311 313 314 311 310 310 310 310 311 316 322 332 332 333 337 339 337 332 328 326 325 325 324 325 325 325 326 328 328 327 327 328 327 325 324 324 326 326 326
314 320 319 315 311 310 311 310 311 312 313 313 315 321 329 334 331 332 336 332 329 330 327 326 327 326 326 327 327 327 328 328 327 326 326 325 326 325 323 323 324 324 325
322 325 323 321 319 318 316 316 315 315 319 319 319 327 334 331 331 333 329 329 329 328 327 327 326 327 326 327 328 329 328 328 326 325 325 324 324 325 324 323 322 323 323
321 326 329 327 326 327 327 326 327 326 321 318 316 319 328 331 330 329 329 329 328 326 327 327 327 327 326 326 328 329 329 327 326 325 324 324 324 324 322 321 321 321 322
317 326 333 329 330 329 327 327 327 327 327 327 324 318 319 327 327 327 329 329 328 327 327 326 326 326 326 327 328 328 327 327 325 324 324 324 323 322 322 321 322 321 320
317 331 329 327 328 328 328 328 327 326 325 324 324 326 327 327 327 328 328 329 329 328 327 326 326 327 328 328 328 327 326 326 325 324 325 325 324 323 322 322 323 323 322
320 331 331 331 330 329 327 326 325 325 326 325 323 327 328 329 328 326 325 327 328 328 328 327 327 327 327 327 327 325 325 325 323 323 323 324 324 324 323 323 323 323 323
325 333 332 331 328 327 326 325 325 325 326 325 325 325 324 322 319 319 321 324 326 327 327 327 327 327 327 327 326 326 326 325 325 325 325 324 324 323 324 324 324 324 324
331 332 333 331 329 328 326 325 324 325 323 320 318 316 313 313 312 314 317 319 321 323 324 325 325 326 325 325 326 326 326 326 326 326 326 325 325 324 324 323 323 323 321
332 331 330 328 328 326 326 325 321 318 315 313 310 308 308 309 310 310 312 315 316 317 317 320 322 322 323 323 324 325 325 325 325 325 325 325 324 324 323 322 321 319 316
331 330 328 326 325 322 318 315 314 312 309 307 305 304 304 303 303 304 306 309 310 312 314 314 315 318 320 321 322 322 323 323 323 323 324 322 321 318 316 313 310 308 306
Wind_Speed
31 29 27 27 21 19 19 20 21 22 24 25 28 29 29 33 32 29 32 40 32 31 32 41 44 37 42 39 27 25 22 17 6 2 7 17 15 10 8 7 7 6 7
35 32 30 27 21 18 16 18 19 22 21 23 27 29 31 33 32 33 34 29 35 30 33 33 30 27 37 31 31 27 27 19 10 5 10 11 9 9 8 9 7 6 6
33 33 31 28 24 23 21 20 21 25 28 25 26 27 23 26 30 34 34 31 31 28 29 29 33 33 29 31 30 30 25 19 13 11 8 10 8 12 9 7 7 4 5
28 30 24 26 28 24 21 21 23 24 23 22 24 26 28 28 30 32 30 34 32 29 29 28 33 31 30 33 29 25 17 19 14 16 12 14 12 12 10 7 7 6 5
20 26 27 32 29 26 26 25 25 28 25 28 24 22 27 29 30 29 32 31 32 31 33 31 32 32 33 35 32 25 18 13 13 14 10 8 10 11 14 10 9 7 8
11 15 23 31 30 30 26 24 24 24 25 29 29 30 26 28 30 33 35 32 30 29 33 37 35 29 33 28 25 23 26 19 16 13 12 8 14 17 15 14 12 6 2
21 19 24 25 29 31 31 27 24 21 22 30 29 28 30 29 31 37 41 42 41 30 39 32 30 34 30 26 24 21 22 19 19 20 17 15 13 18 18 15 18 13 9
26 26 28 29 31 33 34 33 29 28 27 29 29 29 31 33 31 39 39 44 38 35 40 33 32 33 32 30 25 24 21 18 16 15 14 11 12 14 17 18 22 18 10
29 30 32 33 33 31 32 35 36 32 29 27 27 30 30 31 34 39 38 42 37 33 34 31 32 30 31 29 28 22 18 16 14 12 11 10 12 11 10 11 13 17 3
22 23 25 29 36 38 37 36 35 32 28 25 28 31 33 34 41 45 44 41 30 29 33 33 37 37 31 26 24 24 22 19 17 13 8 7 9 9 9 10 13 18 6
29 29 31 34 36 37 38 37 34 31 27 27 27 30 33 31 42 41 44 44 32 28 24 30 34 34 30 27 24 23 23 21 16 10 6 4 6 7 10 10 10 14 13
31 33 37 39 38 35 32 33 32 28 26 24 26 30 31 36 39 43 48 46 38 32 28 33 34 31 29 28 19 19 20 22 15 11 6 7 8 8 6 9 10 10 12
31 36 35 36 35 36 39 38 31 33 28 27 25 27 29 34 34 39 44 44 38 29 35 40 34 32 29 24 21 20 20 19 16 12 11 11 10 7 5 6 7 8 8
38 41 43 44 46 53 53 48 44 37 31 29 30 27 31 30 30 31 33 31 35 34 35 36 34 33 28 24 21 21 19 16 15 13 13 9 10 9 8 6 7 7 5
37 40 41 39 36 40 52 49 45 46 41 33 31 33 28 26 29 33 35 36 35 42 42 36 32 30 25 22 20 18 14 14 14 15 12 13 14 9 7 6 5 7 5
34 36 31 2 10 10 23 29 40 38 40 44 42 36 35 33 34 40 46 44 38 46 35 26 21 23 22 23 20 17 14 14 16 15 15 15 12 8 6 7 4 4 3
33 28 6 12 9 15 19 19 13 30 34 41 38 40 36 34 41 50 50 52 48 41 29 23 22 22 24 23 20 19 18 18 17 15 13 12 11 8 8 6 5 4 3
28 22 13 14 14 15 17 19 20 15 10 16 38 36 41 50 53 52 55 46 30 28 28 25 23 26 24 22 19 20 21 20 17 13 12 12 11 11 9 6 6 7 6
27 19 12 15 15 17 20 17 16 17 19 23 31 37 53 56 55 52 39 31 26 23 25 27 27 23 19 19 17 23 24 20 18 16 14 14 14 12 8 5 6 7 8
28 20 20 26 27 23 26 25 25 18 24 28 29 29 36 44 33 28 29 29 26 26 26 27 24 20 18 15 20 22 23 20 17 16 16 15 12 9 7 8 8 7 9
17 18 34 28 24 21 28 27 19 22 24 25 25 28 32 30 27 26 26 26 27 26 23 22 24 23 17 19 22 22 21 20 17 15 15 14 12 10 9 9 8 6 6
21 15 26 22 23 27 27 26 23 27 28 28 27 35 30 28 27 27 29 27 23 22 23 24 23 19 17 18 19 19 16 17 14 13 12 11 11 9 10 8 8 6 4
14 11 22 23 26 31 31 27 28 30 30 27 26 28 28 28 29 32 33 31 29 26 26 24 23 20 19 17 16 14 11 15 13 13 13 14 11 10 9 7 7 7 7
7 17 24 22 26 27 28 28 30 31 27 28 28 28 28 31 31 31 30 29 29 28 25 25 24 24 22 21 20 19 17 15 15 13 12 12 11 9 8 11 10 9 9
18 21 24 26 27 29 30 27 27 29 28 27 27 30 31 32 33 32 31 29 28 27 25 24 23 21 22 22 22 21 18 15 14 12 13 13 13 13 14 14 13 13 12
19 23 24 27 28 27 27 28 27 27 27 27 28 28 31 31 31 31 31 30 30 29 27 25 23 21 20 19 18 16 13 11 10 10 13 14 15 18 19 21 22 23 21
Wind_Direction
214 221 226 228 236 246 262 271 272 281 285 287 284 284 280 275 271 260 267 243 234 226 222 222 239 245 242 246 238 231 233 219 194 167 146 162 166 180 189 219 240 246 252
213 218 216 220 223 231 244 261 278 270 272 278 282 277 275 275 276 265 257 268 251 231 223 222 239 222 231 242 234 227 229 219 195 157 168 170 189 185 197 216 237 250 268
221 212 209 215 213 225 242 262 271 275 274 271 271 276 280 275 269 268 264 259 262 253 252 234 234 221 234 230 223 220 225 224 189 167 155 183 180 193 195 223 242 245 268
215 207 212 223 213 216 229 241 258 271 281 284 273 274 272 278 278 265 264 262 260 263 250 231 235 225 226 222 214 209 216 202 176 172 169 177 187 193 196 210 214 221 243
207 215 237 234 213 217 221 226 240 262 269 277 285 283 274 274 274 273 259 261 253 251 249 239 233 235 231 225 211 207 208 199 175 172 176 182 173 171 198 216 204 207 218
251 245 237 221 218 228 224 230 231 237 255 276 288 289 288 276 277 277 272 257 255 239 235 241 238 234 227 213 217 217 218 201 193 181 186 195 200 203 208 205 185 167 225
278 282 269 240 222 218 222 223 224 229 245 264 278 280 282 286 278 279 273 281 252 247 239 230 224 226 205 199 199 205 209 212 216 213 207 215 212 221 213 209 202 197 195
254 251 249 248 239 232 230 216 225 232 237 251 264 272 274 276 281 280 277 277 261 243 236 224 215 198 192 189 185 194 192 193 197 208 216 217 228 229 236 238 224 213 195
247 244 244 246 240 230 216 218 222 227 231 236 252 263 264 270 273 276 279 276 259 237 226 217 206 203 188 186 180 179 180 186 195 206 205 215 233 243 238 231 185 161 151
255 259 262 259 250 240 232 222 227 227 230 233 249 251 261 270 273 268 272 275 258 233 217 209 200 185 175 181 186 188 181 185 184 187 194 227 239 240 226 223 207 178 148
269 267 263 261 256 249 240 237 223 214 220 230 240 252 260 261 266 264 263 268 249 227 198 180 186 176 172 177 189 188 192 187 182 175 169 235 224 227 216 207 207 210 189
273 269 266 259 247 240 233 224 221 215 218 228 239 250 256 260 260 258 256 262 248 217 175 177 168 166 169 176 172 179 183 174 168 159 161 208 207 209 195 202 202 220 227
275 271 266 260 256 247 231 223 216 218 221 230 240 245 253 257 253 250 254 252 223 178 168 167 161 163 165 171 172 160 166 163 157 158 181 199 202 189 187 201 214 220 231
275 271 266 257 247 237 234 228 221 222 225 233 233 232 242 243 239 233 228 201 169 156 159 158 156 159 162 165 158 162 166 161 169 181 194 189 169 171 174 179 191 198 212
276 275 273 273 265 244 221 213 212 214 216 217 219 223 223 227 208 198 172 158 151 158 153 143 143 147 148 154 161 163 162 168 177 186 184 177 161 164 169 174 184 196 199
280 280 283 27 344 65 153 169 187 195 203 215 216 214 219 219 194 177 170 168 171 155 136 138 141 147 152 162 164 160 159 171 183 178 167 162 160 164 173 189 163 151 199
272 283 153 110 101 105 117 138 158 185 200 219 224 217 225 178 174 160 158 155 147 142 135 144 148 153 157 158 156 162 170 187 189 186 179 183 167 170 175 178 200 216 216
308 319 163 149 143 139 147 157 165 174 181 180 219 207 170 158 150 145 139 132 126 129 137 145 146 152 156 156 162 177 186 181 181 179 178 171 170 179 172 176 206 218 227
326 332 161 161 154 144 135 132 142 132 118 123 116 130 143 141 137 135 128 123 126 127 138 145 151 149 153 168 191 188 179 179 184 181 181 179 171 174 174 191 207 224 232
329 335 111 94 100 97 97 100 106 116 120 121 122 128 133 129 124 120 117 122 127 136 146 150 149 148 172 171 156 165 169 170 169 175 179 178 176 178 174 192 199 206 207
302 61 111 130 100 102 108 125 126 119 115 116 122 132 129 117 116 115 114 124 136 143 144 151 161 169 176 171 160 163 165 170 177 175 176 179 173 181 185 183 194 191 180
335 46 107 109 110 109 111 109 115 119 116 111 109 111 104 99 100 98 104 113 121 137 152 155 163 167 161 158 156 160 163 169 169 168 169 173 179 191 184 190 197 195 179
339 67 108 108 110 107 108 115 116 117 115 107 102 97 94 94 96 102 110 113 119 129 134 142 142 134 147 152 160 161 157 170 170 170 162 166 169 176 182 178 170 143 134
21 81 96 102 106 107 108 111 113 111 98 95 96 95 94 97 102 112 115 116 118 122 125 126 126 129 128 126 126 130 137 136 147 151 155 155 146 151 150 136 128 123 118
94 94 94 97 104 107 108 104 99 99 98 98 97 97 101 109 113 115 117 117 116 117 117 117 121 126 126 123 122 120 123 124 122 132 139 137 134 133 127 127 121 116 111
124 106 98 101 103 100 100 99 98 99 98 98 100 103 108 109 113 117 118 118 114 112 114 113 112 117 120 120 121 123 127 126 118 122 131 124 123 118 113 108 103 98 96